Wind_Speed
23 22 22 24 25 24 25 27 28 27 23 24 26 26 25 24 23 24 26 29 29 24 21 19 20 20 23 23 20 18 18 31 42 39 36 35 29 25 23 19 16 15 17 18 17 15 13 11 9 9 9 6 6 7 7 5 0 2 1 2 3 3 2 1 1 1 0 1 3 1 6 8 4 5 6 4 7 6 8 12 11 12 13 9 6 5 14 23
23 22 21 21 24 24 24 26 28 28 25 22 24 26 25 24 23 24 25 26 25 24 21 18 17 19 22 21 19 18 20 31 41 39 39 37 29 25 23 17 17 16 16 17 18 17 15 13 10 9 9 6 5 6 6 5 2 1 1 2 3 1 1 1 1 0 1 2 3 1 4 8 5 3 6 6 5 7 7 10 11 11 14 14 10 8 15 24
24 22 21 19 21 24 24 25 25 27 27 24 23 25 25 25 25 24 25 25 24 25 23 18 16 20 22 20 17 16 21 29 34 39 41 37 29 27 24 14 16 17 17 17 17 17 16 15 12 11 9 6 5 6 6 6 3 2 2 4 1 2 2 1 0 0 2 3 3 1 3 7 8 5 6 6 4 7 10 10 11 13 17 17 14 11 15 24
25 23 22 19 19 21 24 25 24 25 27 27 24 24 26 25 25 25 25 26 25 27 25 19 17 22 22 20 19 18 21 21 25 38 40 36 33 31 26 16 17 17 17 17 15 16 15 14 12 11 10 5 4 5 6 7 5 3 3 3 3 4 2 3 1 1 2 4 3 2 2 4 7 9 8 6 5 8 13 15 14 16 19 19 18 14 16 25
26 24 22 20 19 19 22 24 26 25 25 28 27 24 24 25 25 26 27 27 27 28 25 19 18 24 23 21 20 20 20 10 14 30 32 35 39 35 28 18 19 18 17 17 17 16 14 13 12 11 9 4 5 5 4 6 6 4 3 1 6 5 3 3 0 3 4 3 3 3 3 2 3 9 11 10 9 7 7 12 15 17 17 17 18 17 17 24
26 25 23 20 19 19 21 23 26 27 25 27 29 25 23 24 24 25 27 27 30 29 23 19 21 25 24 21 19 21 19 5 4 19 28 34 35 33 27 19 21 21 19 19 19 18 15 14 13 11 8 5 7 6 3 7 8 4 3 3 6 5 2 2 2 5 5 4 3 3 3 3 3 6 10 15 17 13 9 9 9 12 17 16 17 19 19 22
25 25 24 22 20 18 20 23 26 27 26 26 29 28 24 23 24 24 26 27 30 28 22 19 23 25 24 21 18 21 21 8 1 10 27 32 29 30 25 19 23 23 22 22 22 21 18 16 14 11 8 5 7 7 5 7 7 6 3 5 6 4 2 2 4 6 6 5 6 5 4 4 5 5 6 15 20 20 19 14 8 7 12 16 18 20 20 21
24 24 24 23 21 18 19 22 25 26 27 26 27 30 28 24 25 26 27 29 30 27 22 20 23 27 26 24 23 22 23 18 4 3 22 28 26 28 24 21 24 24 25 24 24 23 20 18 15 13 9 6 6 7 7 6 5 8 4 5 6 4 2 3 6 5 6 7 7 7 7 6 8 6 6 16 21 19 19 18 14 9 8 14 19 21 21 22
24 23 24 23 21 19 18 21 25 26 27 27 25 28 30 27 25 27 28 31 31 28 25 22 24 27 27 27 28 21 23 27 11 3 18 26 24 25 23 24 25 25 26 24 23 23 20 19 18 16 9 6 7 7 10 8 5 7 5 5 5 3 3 5 5 4 8 12 9 7 7 6 7 7 9 16 17 15 16 18 19 16 12 13 16 20 22 23
24 23 23 23 21 19 18 21 24 26 26 28 25 23 28 29 26 25 27 30 31 29 26 24 27 29 28 29 26 15 21 31 16 4 17 26 24 24 23 25 25 25 25 23 22 23 21 20 21 19 8 6 8 7 12 9 2 4 7 5 3 5 6 6 6 8 12 13 9 7 6 4 4 5 6 7 5 6 10 15 18 18 17 15 15 19 22 23
23 23 23 23 22 20 19 21 24 25 26 28 26 22 24 30 29 25 27 29 29 28 27 26 28 30 31 32 26 14 19 32 22 8 15 24 24 25 26 24 24 24 23 22 21 22 21 20 22 18 7 7 9 6 9 6 1 5 6 4 4 7 9 10 11 12 10 8 6 6 7 5 3 5 7 9 7 6 6 11 16 19 20 18 17 18 21 23
22 23 23 23 22 21 19 20 23 24 24 27 28 23 22 28 30 27 26 27 30 29 27 28 29 32 33 31 27 19 20 31 29 16 16 24 26 25 25 23 22 22 21 21 21 19 15 14 19 14 5 9 9 5 6 5 4 6 5 2 2 4 8 11 12 12 8 6 4 1 7 8 7 10 15 15 13 8 7 11 14 18 20 20 20 19 21 23
22 22 23 23 22 22 20 19 22 24 23 24 27 26 22 25 30 31 26 26 33 32 29 30 31 36 34 26 26 25 23 31 33 22 16 22 26 25 25 24 22 21 19 19 20 17 12 11 14 10 9 10 7 4 6 7 5 5 3 1 2 4 6 6 8 10 9 9 6 3 7 8 6 13 19 17 14 10 10 13 15 17 19 21 22 22 22 23
21 22 22 22 22 22 20 19 21 23 23 22 24 27 25 23 26 32 29 23 30 36 33 33 35 39 34 21 24 29 25 28 31 27 20 19 25 27 25 25 23 21 20 17 16 15 12 11 11 10 10 9 8 9 8 6 3 4 3 1 2 4 3 3 4 7 8 9 10 8 8 8 4 9 13 14 14 12 12 15 16 17 18 21 22 23 24 24
20 21 21 22 21 21 20 19 20 23 24 22 22 25 26 24 22 27 30 23 28 37 37 38 40 39 29 15 21 32 29 25 25 27 26 20 22 28 26 25 23 21 19 16 15 14 13 12 10 9 9 10 12 10 6 4 2 2 3 3 3 5 3 3 3 5 5 4 10 10 7 7 7 10 12 13 15 15 15 15 17 19 19 20 21 22 24 25
20 21 21 21 21 21 20 19 19 22 24 22 21 24 27 26 22 23 27 25 31 41 40 40 44 37 21 10 19 32 32 26 22 22 27 23 21 28 29 25 23 21 18 16 14 14 14 11 10 10 10 9 10 6 4 3 2 1 4 4 4 6 5 1 3 2 2 1 7 10 6 4 4 6 8 10 14 17 17 15 16 20 21 21 22 23 25 25
21 21 21 21 21 21 20 20 20 20 22 22 20 22 25 27 25 23 25 24 32 46 43 38 47 38 15 9 19 31 37 33 25 20 22 22 22 29 31 26 25 22 19 16 14 14 14 11 10 9 7 7 7 7 6 5 3 2 3 5 5 6 4 3 3 3 1 3 6 9 8 10 8 7 10 11 11 14 16 15 15 19 22 23 23 24 25 26
21 21 20 21 20 20 20 20 20 20 20 20 19 19 22 25 26 24 24 24 32 45 38 34 43 28 9 16 27 35 43 39 29 23 22 23 24 29 31 27 26 23 19 15 11 13 13 10 8 7 6 7 8 9 9 7 7 6 6 6 5 5 5 5 3 3 1 3 6 7 8 14 13 12 18 19 14 12 16 15 14 19 22 23 24 24 25 26
22 21 20 20 20 20 20 19 20 20 19 18 17 17 17 21 22 25 26 23 29 31 20 29 41 19 8 25 36 36 42 41 31 24 25 28 27 27 29 26 24 23 18 12 9 13 13 8 7 8 9 11 11 13 13 8 11 11 8 7 6 6 6 5 2 2 2 3 7 9 10 13 13 12 16 20 18 16 17 16 16 20 22 22 24 24 25 27
21 21 21 20 20 20 20 20 19 19 19 16 16 15 13 15 11 17 25 23 29 30 19 40 57 31 13 25 34 34 35 36 32 27 27 31 30 26 24 22 20 18 15 11 10 13 14 9 9 10 12 14 14 15 11 5 8 10 7 7 6 6 6 2 2 2 2 4 7 7 9 12 13 12 12 16 17 16 17 17 18 22 24 25 25 25 25 25
20 21 21 20 20 20 19 20 19 19 19 16 17 15 12 17 12 10 19 19 29 36 24 42 59 35 18 27 35 38 37 32 33 32 27 29 30 23 21 21 17 12 14 14 11 11 11 10 10 11 13 15 14 13 9 4 5 9 7 7 7 6 5 2 1 1 2 3 6 5 8 13 14 13 14 14 14 15 18 18 19 21 23 27 28 28 28 26
19 20 20 20 20 20 19 19 19 19 19 17 18 19 17 25 26 18 13 10 24 35 23 33 44 26 20 29 35 41 39 27 27 35 31 30 31 22 19 21 15 9 12 13 10 8 8 9 11 13 13 14 12 12 11 9 7 7 6 5 6 4 3 3 3 1 2 2 7 6 8 14 15 14 15 16 15 17 23 24 23 22 21 24 29 31 31 30
19 19 19 20 19 19 18 18 18 18 19 20 21 26 25 25 29 25 12 7 13 26 26 32 33 26 28 30 34 41 36 25 25 35 38 37 31 23 21 18 13 9 10 11 10 9 6 8 14 15 14 14 12 11 11 9 6 4 5 6 5 3 2 4 3 2 2 2 6 8 9 12 15 14 15 19 19 21 27 30 29 28 24 24 29 32 32 31
19 19 18 18 16 16 16 15 17 18 21 23 24 30 29 22 25 27 16 9 9 14 30 40 36 33 37 35 37 42 36 30 31 35 42 40 28 22 21 17 13 10 9 13 13 9 3 6 15 14 13 15 11 11 11 8 5 4 5 7 4 3 4 3 1 1 3 3 2 7 10 9 10 13 12 12 14 17 22 27 28 29 29 28 30 32 32 32
19 19 18 16 14 13 12 12 17 22 22 26 30 30 28 22 21 22 13 8 7 7 20 35 35 32 37 36 36 38 33 29 33 41 46 41 31 21 18 17 12 9 13 15 13 8 3 8 15 13 11 14 11 10 11 8 5 4 6 9 7 5 5 2 1 3 4 3 1 4 8 5 2 7 9 5 6 9 12 15 19 24 26 28 30 31 32 32
18 18 17 16 13 11 12 13 19 23 23 28 33 29 27 25 20 18 10 4 5 5 10 22 25 27 36 34 35 36 23 17 27 43 46 40 35 24 15 13 7 9 16 12 6 4 3 7 13 13 13 13 11 9 11 11 6 3 5 8 8 5 4 3 1 3 4 4 1 1 6 6 4 8 10 8 9 10 9 10 13 20 24 26 29 31 31 31
18 18 17 14 13 13 14 16 19 21 25 30 32 29 28 25 19 14 8 4 6 7 10 16 17 27 36 37 44 32 10 14 22 34 44 37 32 25 15 11 6 9 15 9 4 2 6 10 11 12 13 11 10 9 11 13 9 3 5 9 9 7 6 5 3 3 3 4 3 3 3 8 9 9 9 9 12 14 14 13 12 18 26 30 31 32 31 31
18 17 17 16 15 16 17 17 17 23 29 29 28 29 28 24 19 13 6 6 5 7 9 13 14 27 38 41 44 26 17 30 21 22 44 38 28 23 14 12 11 13 15 11 8 3 6 11 13 14 12 9 9 7 11 13 7 2 6 8 8 6 5 4 2 2 2 4 6 4 3 6 9 4 4 5 10 15 14 13 12 15 24 30 33 33 32 31
18 17 17 17 15 17 19 17 21 28 30 24 22 24 23 22 17 9 4 6 3 4 5 16 16 22 33 33 27 21 24 27 13 20 41 34 24 18 9 14 17 15 11 6 5 3 2 7 14 15 10 7 6 8 13 14 4 4 7 7 7 4 4 3 1 0 1 3 9 5 6 6 9 4 5 4 7 12 10 8 11 14 20 26 29 30 28 27
19 17 18 18 17 19 19 21 29 32 25 22 21 19 20 23 14 5 7 4 3 1 4 14 16 20 29 21 10 17 19 11 16 29 27 19 19 13 10 16 16 13 5 4 4 2 2 3 9 7 4 6 9 8 7 8 8 10 8 8 8 4 3 2 1 2 1 5 7 6 10 7 7 3 6 4 2 5 6 6 9 12 17 22 26 26 24 24
20 19 19 20 22 20 19 28 36 32 26 22 19 20 23 17 7 6 8 1 3 4 6 8 13 21 26 16 8 16 15 8 20 27 14 9 11 10 13 13 9 8 3 3 3 1 3 6 5 1 3 9 11 7 3 5 12 12 5 6 6 2 2 1 1 1 5 6 1 1 6 9 9 4 1 3 4 4 5 6 7 9 13 18 20 20 18 20
22 21 20 23 24 21 26 36 31 25 27 26 23 25 21 8 6 7 4 5 1 6 8 6 11 19 23 18 13 16 14 10 18 20 14 11 8 10 13 11 9 9 6 8 6 3 4 3 1 2 6 10 11 7 4 3 7 6 4 7 6 2 3 3 3 3 6 5 1 2 1 7 11 7 6 11 12 8 7 8 10 12 14 16 18 16 15 16
22 21 22 25 25 27 36 36 24 20 24 29 30 25 13 6 9 9 5 4 3 4 8 10 14 20 23 18 13 16 14 11 17 18 16 14 11 11 6 7 13 7 6 12 8 6 4 1 2 4 4 10 12 9 5 4 5 6 7 8 6 5 5 8 7 4 5 3 2 1 1 5 10 6 6 11 11 7 6 10 14 17 19 20 21 22 22 22
23 22 24 27 28 35 38 30 23 23 25 32 29 15 9 9 8 13 14 6 1 3 7 12 17 20 22 17 14 17 12 9 16 17 14 12 11 10 4 7 14 4 6 10 5 8 9 2 8 9 5 11 12 7 7 8 6 6 6 4 3 4 5 7 6 5 3 1 2 3 2 5 5 2 2 7 8 10 15 17 16 16 18 19 21 22 22 21
23 23 26 29 33 39 38 31 28 27 30 33 20 6 9 9 7 13 15 5 2 3 7 14 20 18 16 13 14 18 9 7 17 15 13 13 11 12 11 12 17 10 9 10 4 7 8 1 3 4 6 12 10 4 9 12 7 4 3 1 3 2 1 2 1 1 1 0 3 5 4 5 3 6 10 11 9 13 16 15 13 13 12 13 15 14 13 12
23 26 28 31 39 41 37 35 32 30 34 29 11 6 9 8 8 9 9 8 6 6 8 14 17 15 11 8 12 15 3 4 18 13 10 15 12 14 13 10 15 14 11 11 6 6 6 2 2 3 7 11 9 9 12 12 7 4 5 5 2 1 2 2 1 2 1 4 4 4 6 6 5 9 11 7 6 9 9 7 6 6 5 7 9 8 8 8
24 27 29 35 43 42 37 37 32 32 37 23 6 8 8 9 13 7 9 16 13 11 10 10 11 13 11 6 9 13 6 7 16 11 8 12 10 13 12 9 15 16 12 9 4 3 5 5 2 1 6 6 5 11 11 4 2 5 7 7 4 2 2 1 3 1 2 6 3 3 8 7 5 5 2 2 5 7 6 5 4 2 3 4 6 7 8 10
26 26 31 41 45 40 38 36 31 35 35 16 8 14 11 13 17 9 11 19 18 14 9 5 7 9 12 10 8 11 12 11 12 9 10 11 8 13 15 11 14 16 13 7 2 3 6 7 2 1 3 4 3 7 8 2 2 1 4 9 6 3 4 4 3 3 4 6 4 4 6 7 7 6 3 6 8 7 6 2 5 2 2 3 4 6 8 11
24 20 30 45 45 39 38 34 34 40 27 8 10 16 10 13 18 17 20 21 18 16 9 6 6 4 10 15 13 13 15 14 13 10 10 9 7 15 19 12 12 19 17 8 4 6 5 5 3 1 2 5 4 6 9 8 3 2 3 7 3 2 4 5 3 2 3 5 5 2 2 4 7 7 8 10 7 6 6 2 3 4 3 2 2 3 6 10
21 14 29 47 41 32 35 36 37 32 15 6 13 14 11 13 15 22 32 26 15 13 13 12 9 5 9 14 16 16 14 14 16 12 10 11 9 14 20 14 13 20 16 6 4 5 2 2 6 4 3 6 6 7 10 12 9 5 7 9 6 3 1 2 3 2 2 3 4 3 4 5 3 4 8 10 7 5 4 4 1 5 4 4 2 1 5 9
18 9 28 46 36 27 32 33 25 15 6 9 15 14 15 14 11 20 33 30 17 10 12 14 13 9 8 12 14 14 13 13 14 10 8 13 9 8 17 19 18 19 13 6 7 6 1 3 8 7 7 7 4 1 2 7 10 9 8 9 11 8 5 5 6 3 1 2 2 2 6 6 3 4 6 8 5 3 1 2 2 3 6 6 3 1 3 8
15 13 28 31 20 25 34 22 11 10 8 11 15 17 19 16 13 19 27 26 16 6 6 11 14 12 9 12 14 13 13 13 13 11 9 14 13 9 19 27 26 22 13 6 6 3 2 4 8 7 6 4 3 4 3 1 3 3 3 6 9 8 7 7 6 4 4 2 1 1 5 5 2 4 5 5 2 1 1 4 5 5 5 6 5 2 3 9
17 29 42 29 15 29 32 11 7 9 6 13 21 23 23 18 14 18 22 22 13 4 4 8 11 13 10 11 13 14 14 12 14 14 11 14 12 7 21 35 32 22 10 5 5 5 3 5 7 7 4 3 4 3 2 2 1 4 5 3 5 7 6 2 1 4 6 5 4 3 6 5 2 3 3 4 3 3 6 7 6 5 4 5 6 4 4 13
23 36 47 37 28 32 23 6 8 10 8 19 24 23 24 19 16 18 17 18 13 6 6 7 10 13 10 9 13 16 17 11 10 10 7 10 8 6 24 40 34 21 13 11 13 10 6 5 7 10 7 3 3 2 4 4 5 7 5 4 6 8 6 1 1 3 5 10 12 8 6 4 2 1 2 4 4 5 7 7 7 8 6 3 3 4 10 17
19 24 31 35 34 34 28 20 18 13 15 24 22 21 22 13 18 26 20 16 17 11 6 7 12 14 11 11 12 16 15 7 7 9 4 5 4 5 25 39 34 22 15 16 18 10 4 4 6 10 12 12 11 8 7 8 6 4 5 10 12 13 14 7 2 5 8 9 12 11 7 3 3 3 4 4 3 3 5 5 4 6 5 4 5 10 17 19
8 9 12 17 25 34 37 37 29 16 16 22 17 19 21 10 14 30 28 20 21 18 9 8 14 15 14 16 14 15 10 2 2 9 7 8 4 2 23 38 33 24 15 18 21 11 3 1 4 8 10 8 6 5 8 14 12 10 15 18 16 15 16 9 2 8 8 5 9 15 8 3 5 8 6 5 5 3 4 4 3 4 5 8 12 17 19 19
8 7 7 7 13 22 24 25 23 16 17 20 12 13 21 15 11 21 26 20 20 22 11 6 13 14 15 20 16 15 10 4 5 11 8 8 5 3 19 30 27 23 18 20 24 12 3 4 8 10 6 2 4 6 13 18 18 19 19 19 17 15 16 14 12 12 8 7 10 13 10 9 10 10 7 6 4 3 5 5 5 6 9 13 17 19 19 21
13 12 20 22 14 10 14 15 16 18 23 22 13 13 22 22 17 17 17 13 18 23 11 5 13 16 19 24 16 13 12 6 9 11 6 7 8 7 13 16 16 21 16 15 18 9 3 7 10 8 3 4 3 8 15 17 14 15 19 21 21 19 19 21 22 16 13 11 11 7 14 18 15 10 9 6 3 6 11 11 9 11 16 20 20 19 20 25
18 16 25 31 18 9 18 20 18 21 26 22 13 15 21 23 22 16 11 11 16 20 13 8 12 16 21 23 17 16 17 13 13 13 9 13 14 12 12 8 11 18 14 10 10 5 3 6 7 7 4 5 3 7 13 14 9 10 17 20 21 24 25 26 26 19 17 17 9 5 7 16 11 8 9 13 15 16 15 17 20 21 23 24 23 24 27 31
25 20 17 19 13 10 18 23 21 19 21 19 13 14 18 21 23 16 11 14 17 16 16 16 16 18 21 21 17 18 22 22 23 23 20 20 16 13 14 11 11 17 15 11 7 3 4 5 5 8 5 4 2 4 8 10 9 10 13 15 20 26 26 23 18 12 13 19 12 2 8 13 7 8 11 17 19 15 12 17 21 22 24 25 26 29 32 33
40 35 24 12 5 8 13 16 19 17 15 15 13 14 16 20 23 17 10 14 18 18 20 20 19 18 19 22 21 19 23 24 23 27 29 27 24 18 12 10 15 18 14 11 9 4 3 4 4 7 6 1 2 5 6 5 4 5 10 19 24 24 20 17 13 13 17 18 9 6 13 11 8 11 10 11 12 12 12 15 18 23 29 30 30 32 33 31
42 42 36 19 5 10 12 12 16 17 14 15 18 19 18 20 23 19 12 10 16 21 25 27 25 17 13 20 26 28 31 26 21 28 31 27 24 18 14 16 21 19 13 9 6 5 6 6 5 8 9 4 2 6 8 7 5 4 15 21 21 19 16 12 12 17 20 13 8 11 14 6 9 11 10 9 11 14 16 20 25 32 37 34 30 29 29 27
Wind_Direction
226 223 221 222 226 223 218 219 218 212 212 216 211 209 210 215 217 217 219 209 198 198 201 210 209 202 201 202 206 205 204 204 199 195 190 183 177 177 182 187 188 193 202 205 206 207 202 197 198 198 194 190 180 171 178 195 3 28 202 225 228 211 169 154 179 179 51 30 39 88 200 214 215 192 203 213 198 206 205 206 217 214 216 213 201 205 193 190
228 227 222 219 223 224 219 219 221 216 212 216 213 209 208 209 213 214 215 214 210 204 197 203 206 199 198 200 204 202 199 200 199 201 195 183 182 181 176 190 200 203 212 213 217 216 215 212 201 193 188 182 180 180 188 183 157 93 153 226 231 161 98 69 42 75 273 344 11 30 200 215 228 194 202 225 204 199 211 209 216 221 219 217 210 202 196 192
228 230 226 218 217 222 222 218 221 220 215 216 217 212 208 207 210 212 213 217 222 216 202 196 199 194 194 197 193 189 191 195 202 207 198 187 191 186 172 187 206 207 215 217 222 222 224 225 221 213 197 187 189 188 196 188 173 145 188 234 203 95 100 132 119 177 289 320 342 353 187 210 225 212 204 233 222 204 224 215 204 218 222 217 209 202 198 194
227 229 230 223 214 216 221 219 218 219 218 217 216 214 210 208 208 208 210 213 220 221 207 194 193 191 192 193 182 172 176 187 213 213 200 194 200 192 176 188 207 206 210 212 217 220 223 222 216 208 196 178 164 186 202 192 190 168 195 238 124 134 168 147 159 273 296 304 316 315 206 210 223 218 209 221 233 227 232 226 219 226 227 218 208 205 199 196
226 228 230 227 216 211 216 218 218 218 218 216 214 214 212 209 207 207 207 210 218 217 205 196 191 188 190 192 183 171 167 172 228 216 203 198 202 196 180 190 213 208 207 209 209 208 206 205 195 186 187 160 148 185 199 183 193 181 181 106 123 158 168 127 113 314 306 297 277 264 242 220 199 214 212 213 233 244 242 238 240 242 238 228 215 209 201 198
225 227 228 229 219 210 211 213 216 219 219 215 212 212 213 211 205 205 207 210 217 209 198 198 189 185 188 190 186 175 174 164 219 206 199 195 196 195 186 197 220 215 211 211 207 204 195 189 185 179 177 163 178 190 153 172 201 216 189 138 147 168 137 103 359 329 307 279 249 252 260 241 203 223 220 221 236 249 259 264 262 251 243 237 223 216 209 203
222 225 227 229 222 211 206 209 213 218 219 218 214 211 212 213 204 204 210 211 211 204 201 200 186 185 185 181 181 180 190 205 56 189 192 192 193 194 193 203 219 217 213 211 208 206 198 190 188 181 175 175 192 190 156 165 199 236 218 153 167 182 154 67 4 337 312 281 260 263 266 237 226 246 228 232 245 250 254 258 260 255 241 230 222 220 219 215
218 223 226 227 226 215 203 205 210 215 218 218 216 213 212 215 208 202 209 212 210 207 207 202 188 186 181 175 177 183 202 210 233 211 186 189 194 193 192 200 213 213 210 211 208 206 200 194 191 183 188 196 179 169 165 164 203 232 223 137 168 198 218 324 346 345 344 320 290 266 256 244 241 250 246 254 261 259 256 252 245 246 238 225 223 222 221 221
215 219 223 225 227 220 205 201 207 212 215 215 213 214 213 214 211 205 206 208 208 207 204 199 191 184 180 180 179 186 207 202 207 259 184 184 188 188 189 197 205 207 209 212 210 209 200 194 191 188 200 188 165 157 170 187 219 216 193 134 164 208 255 310 333 342 339 324 304 265 255 255 243 247 259 263 268 266 257 248 241 238 237 231 225 224 223 222
214 216 219 223 224 221 208 198 203 209 212 214 211 211 214 213 210 207 207 206 206 204 198 195 190 180 179 183 180 192 208 196 196 227 184 181 180 183 190 195 198 199 203 205 208 210 202 201 196 190 196 162 163 170 173 193 224 163 179 175 219 261 279 293 304 305 312 315 296 258 270 282 230 229 250 254 277 279 252 241 238 234 236 237 230 227 226 225
214 214 216 219 221 219 210 198 200 206 209 213 213 212 213 211 210 207 208 211 212 206 198 195 187 180 181 183 184 194 201 194 194 191 181 181 180 184 188 191 192 193 195 194 198 203 203 206 194 182 185 161 154 156 173 194 105 119 162 200 268 282 283 275 276 286 294 304 284 253 277 279 203 215 241 250 274 288 255 239 237 233 234 236 235 232 228 227
214 214 215 217 219 217 213 203 198 205 208 209 215 216 210 209 209 207 209 214 214 208 203 197 188 183 181 185 192 193 191 194 195 188 176 182 184 183 184 186 186 187 187 182 182 187 189 187 181 172 150 154 146 140 181 179 132 126 138 195 256 270 268 250 246 256 254 267 268 251 278 252 200 226 246 256 263 261 248 240 234 233 233 232 233 232 230 230
213 213 214 216 219 217 214 206 199 204 209 208 213 216 213 209 205 206 211 212 210 207 204 199 191 183 181 188 196 193 190 193 196 193 175 181 188 185 184 184 183 181 181 179 175 176 177 167 175 168 130 143 140 118 146 138 139 149 144 251 243 262 263 224 220 225 223 243 222 157 272 250 202 236 247 253 252 241 237 238 234 233 233 231 231 231 232 232
212 212 213 214 217 217 213 208 200 201 209 210 211 214 214 210 208 210 212 214 211 206 204 198 188 184 185 191 194 192 192 192 197 199 187 181 188 188 187 187 186 185 186 188 186 184 181 173 177 167 140 140 131 116 118 119 153 157 143 212 227 255 239 140 172 190 203 225 191 176 257 259 253 264 258 254 247 239 235 237 238 236 235 234 233 233 235 235
211 211 210 212 215 217 214 208 201 200 207 211 211 213 213 210 210 212 212 218 220 213 205 194 185 182 185 193 193 192 194 194 197 203 201 194 189 189 186 186 187 187 187 189 191 187 176 171 171 153 132 136 141 133 121 123 140 153 191 196 188 236 221 132 158 186 218 208 169 187 249 260 262 272 266 260 249 237 234 237 239 239 239 238 236 236 237 238
212 211 210 212 212 216 215 210 204 201 205 209 212 213 214 212 206 208 211 215 219 211 199 188 184 181 182 188 185 189 196 198 195 197 202 202 195 190 184 181 182 180 177 175 177 178 171 165 157 141 129 144 160 156 140 148 142 155 224 211 183 218 238 200 143 161 274 195 184 212 252 267 251 266 266 270 258 238 234 235 236 239 241 240 239 239 239 239
213 212 211 211 211 215 214 212 208 204 205 208 212 213 215 214 207 207 210 213 215 204 194 188 185 185 188 177 174 187 197 198 193 188 190 194 194 190 184 178 176 174 169 168 170 170 168 157 149 150 150 168 181 176 180 192 178 148 218 222 206 213 239 231 138 73 285 216 220 220 243 258 260 287 290 293 277 245 240 239 236 240 240 242 242 241 242 241
210 211 213 212 212 214 213 214 209 206 208 207 210 213 216 217 212 211 213 216 207 196 193 189 182 183 199 186 184 192 196 194 190 185 178 178 184 185 182 176 173 171 164 162 166 164 163 155 162 178 178 187 186 187 202 198 174 178 197 205 215 215 231 242 196 68 58 221 238 220 233 256 261 277 278 280 276 252 252 251 246 249 246 245 244 242 244 244
207 209 211 211 212 212 213 215 209 208 208 206 209 209 213 218 219 222 223 221 203 188 183 177 175 183 212 190 192 194 195 192 185 182 177 172 176 181 181 178 173 170 162 158 170 169 158 147 180 196 189 191 191 197 208 200 188 194 198 207 221 218 223 241 207 70 23 261 253 240 243 258 261 261 260 266 266 254 257 260 255 256 254 250 246 243 243 244
209 209 210 211 213 212 212 213 209 209 206 205 204 201 208 204 208 234 232 232 213 196 182 178 180 186 187 176 185 187 184 187 185 181 179 173 173 175 176 173 167 170 172 166 170 169 164 170 192 198 194 189 188 197 203 191 195 199 201 217 224 229 229 210 139 98 25 280 260 247 254 264 264 260 254 257 262 257 256 257 255 256 256 254 251 248 246 246
213 212 211 211 213 213 214 213 209 208 207 208 201 199 205 191 184 225 230 243 227 209 198 184 182 181 179 173 179 177 164 170 184 182 180 175 170 168 167 166 163 177 183 161 144 153 174 197 196 193 191 183 184 193 189 157 183 197 201 216 223 232 242 204 167 117 87 271 263 257 268 269 264 262 260 253 251 252 252 252 254 255 257 258 258 256 254 252
216 217 216 213 214 214 215 216 213 208 208 211 208 209 212 203 202 206 213 260 241 224 210 183 178 168 166 175 179 176 160 152 174 180 179 174 172 170 166 171 172 171 167 148 131 149 189 212 189 181 180 174 180 188 189 184 182 193 194 211 224 217 248 236 199 174 135 250 274 284 283 276 271 265 259 253 245 249 256 256 256 258 256 256 261 263 261 260
219 221 221 218 217 215 214 217 215 212 210 212 213 214 214 210 207 208 218 302 260 227 201 179 173 153 149 163 173 173 162 151 165 177 180 176 174 176 167 170 170 151 154 159 160 168 191 206 179 168 171 173 178 183 187 185 177 188 187 201 218 169 222 241 185 167 197 245 287 296 290 278 274 264 254 248 240 245 257 260 260 259 257 256 262 266 266 265
221 221 224 223 222 220 218 216 214 214 213 214 216 216 216 213 207 211 228 294 297 226 198 185 178 163 158 164 174 174 167 166 170 174 180 176 167 169 169 167 158 144 169 177 174 174 141 154 161 156 170 176 171 175 181 183 182 200 207 212 215 174 219 250 30 315 235 203 271 301 291 270 259 256 255 247 234 239 250 255 259 258 257 260 262 263 264 264
222 223 225 221 221 221 217 215 214 214 213 217 220 217 219 217 211 210 219 286 290 224 201 189 179 172 168 167 174 173 164 169 177 175 179 177 166 161 165 169 161 156 178 178 174 183 141 133 153 155 173 178 169 177 184 183 185 201 220 222 218 210 221 229 5 318 273 233 111 334 288 264 244 262 268 264 244 248 246 244 253 258 258 259 258 258 261 263
223 225 223 218 219 213 209 215 215 212 212 221 221 217 217 215 217 214 199 285 267 200 189 182 175 176 172 164 161 163 161 170 180 178 177 179 174 163 154 167 177 170 170 168 174 193 155 152 164 165 170 174 177 188 184 178 190 207 196 200 206 204 193 187 236 286 281 270 30 358 276 280 304 282 272 270 269 263 247 235 243 253 258 256 255 258 260 261
224 224 220 217 215 208 208 213 212 207 211 221 220 215 214 212 215 207 184 265 242 172 161 169 173 177 173 164 158 158 159 154 162 176 176 176 176 169 164 167 171 170 159 149 187 181 130 157 172 168 165 173 189 195 183 182 198 205 150 161 177 183 182 192 220 247 285 314 281 208 246 284 283 273 262 258 268 264 248 239 233 241 252 254 253 255 257 259
225 223 222 216 212 214 216 216 215 210 212 219 216 211 212 208 203 185 177 253 205 136 153 164 172 177 170 165 162 152 142 152 153 179 176 171 173 175 179 178 162 159 159 164 192 167 121 160 172 165 165 186 194 170 163 179 200 176 140 150 163 170 174 174 190 245 339 331 272 201 143 275 271 252 235 225 250 260 252 245 239 237 247 252 252 251 252 256
225 223 224 219 216 222 222 223 223 217 216 216 209 209 207 195 183 164 215 253 137 89 159 160 167 172 161 160 162 136 136 154 147 165 172 172 174 176 180 179 159 142 153 173 181 155 117 178 176 169 178 190 160 124 155 179 188 127 135 115 103 91 79 85 104 53 33 283 266 219 158 256 279 241 215 208 233 257 260 253 253 248 248 252 255 254 253 254
227 225 224 222 223 223 223 227 224 220 216 210 209 208 191 178 166 166 223 227 98 96 162 155 162 160 154 154 155 134 135 140 130 148 166 168 168 167 143 153 147 132 129 38 77 94 39 157 174 176 190 152 117 102 147 169 137 127 130 105 91 74 60 52 53 68 298 261 257 208 176 221 282 235 200 212 245 270 274 260 255 255 255 257 259 260 258 256
229 228 226 225 226 223 223 227 226 224 215 205 210 198 176 167 168 208 212 115 48 190 165 160 159 153 157 155 142 145 136 118 139 146 152 145 156 155 134 138 132 124 123 63 92 42 80 144 173 159 142 126 115 108 72 117 138 135 134 126 112 88 87 83 65 121 240 244 286 231 182 205 240 228 175 307 315 278 263 266 268 268 267 266 266 268 268 265
232 231 232 232 230 226 225 228 229 226 216 210 206 186 167 168 204 207 187 99 128 198 162 167 166 157 163 160 150 152 137 134 153 153 153 152 163 168 158 166 159 141 167 174 157 132 121 141 153 104 153 151 137 131 87 105 157 147 136 144 136 129 155 196 206 196 232 233 66 11 179 213 242 259 285 286 281 262 243 249 265 273 274 276 277 282 288 289
235 231 234 236 234 229 228 232 231 225 220 213 202 180 162 218 201 182 195 158 171 190 155 166 173 163 164 163 157 152 139 149 162 158 159 158 164 178 180 175 168 159 171 164 141 137 143 339 223 167 171 181 171 155 149 170 180 165 155 164 165 158 182 207 205 208 240 229 152 112 108 250 263 277 274 272 280 287 276 269 270 271 272 278 283 289 294 296
237 236 238 238 238 233 232 236 230 222 219 207 197 179 182 214 176 173 201 207 80 185 167 165 167 166 169 170 163 155 143 155 164 155 155 158 167 180 174 179 187 179 119 147 150 162 164 206 199 180 161 180 182 172 152 142 158 179 167 179 196 172 197 209 202 212 223 185 175 168 180 242 250 22 309 261 269 281 282 283 284 278 277 283 287 291 296 296
238 240 240 241 243 237 234 237 228 220 214 200 191 195 201 190 166 185 196 184 123 199 193 172 164 168 178 172 163 163 153 160 164 154 154 165 176 181 172 181 191 177 141 157 169 172 174 184 181 138 128 163 169 143 131 131 149 196 157 188 236 203 177 177 207 248 150 267 214 193 231 257 271 310 285 267 268 273 272 275 284 287 291 294 293 298 306 306
242 242 242 246 244 238 236 236 230 223 215 203 190 217 205 179 188 191 175 169 163 159 186 183 168 167 178 172 169 169 136 145 161 152 163 175 181 186 178 177 183 178 165 157 146 174 177 124 83 90 132 164 163 149 151 149 154 175 183 200 205 57 67 135 176 51 63 258 232 193 251 273 286 286 274 260 277 282 263 240 253 281 301 308 313 330 347 354
245 246 249 248 243 241 239 236 233 222 215 212 209 202 195 195 198 176 161 177 162 147 179 197 178 169 166 157 172 167 129 138 161 152 162 178 186 187 181 179 183 183 176 155 134 190 150 107 68 111 142 159 146 150 160 161 147 169 187 177 133 42 6 200 226 138 183 249 251 204 244 258 260 263 219 213 275 295 273 215 177 232 302 333 354 23 32 35
250 256 258 251 244 242 240 237 232 217 210 215 214 196 192 199 196 178 175 180 168 162 182 209 189 175 168 159 159 164 152 151 167 163 161 174 188 184 180 179 180 183 182 164 120 163 138 105 67 342 135 123 102 155 170 227 278 216 167 155 148 210 210 184 211 206 199 237 255 224 241 251 236 222 208 255 282 315 301 222 131 161 275 356 22 44 45 45
256 262 261 252 243 241 241 237 223 209 204 215 211 200 194 194 192 183 180 180 177 176 183 213 212 188 179 167 146 157 168 163 165 165 168 181 185 180 182 177 170 179 183 176 157 159 138 115 145 223 128 132 146 186 189 186 176 31 149 168 176 257 210 188 189 211 207 221 241 241 248 243 218 204 213 230 257 300 292 267 141 169 219 321 353 20 28 37
253 251 258 252 245 245 239 224 212 205 201 214 207 201 191 188 190 185 181 179 179 185 189 202 212 206 186 170 150 158 170 167 168 169 178 183 172 174 184 179 163 171 173 163 156 158 144 140 144 129 137 162 180 201 196 179 166 165 179 184 192 184 204 230 200 211 235 216 235 260 263 251 193 182 207 208 226 266 280 295 205 158 202 257 249 354 15 33
243 242 259 252 248 241 218 206 205 200 199 210 203 200 189 173 167 181 185 181 177 189 199 195 195 194 180 169 162 163 162 161 172 177 178 180 174 175 186 180 162 159 157 152 167 171 185 148 135 141 177 185 175 169 186 176 175 182 187 192 195 183 168 194 193 181 262 241 224 265 279 270 177 164 207 211 234 273 298 279 240 203 236 235 192 161 16 31
231 235 249 244 237 211 194 191 204 194 199 205 196 196 185 164 160 177 181 181 176 178 201 196 190 184 179 176 172 167 162 162 174 183 185 187 191 188 178 169 158 157 156 145 157 150 70 115 123 133 165 161 88 38 18 281 213 209 223 213 201 192 187 199 200 165 162 210 71 46 288 281 152 152 204 223 233 34 242 234 233 239 226 192 176 186 16 8
222 241 246 244 231 202 190 188 212 193 193 191 190 193 185 172 167 169 174 180 177 146 175 197 187 181 189 184 172 168 165 165 178 183 183 188 194 182 167 162 156 158 159 122 140 162 143 125 114 110 110 83 67 56 47 22 298 233 233 219 200 204 198 214 275 155 164 195 176 182 251 252 132 129 203 253 248 226 247 248 244 242 201 182 204 223 335 338
235 252 256 259 246 212 194 199 204 189 183 183 186 188 183 178 170 163 170 177 171 158 177 185 182 185 193 183 176 175 168 167 187 189 182 183 183 160 164 164 160 164 177 170 169 178 171 150 135 128 131 148 148 186 205 193 208 215 200 181 204 204 180 133 344 162 201 209 189 194 239 224 130 108 198 237 237 228 233 237 243 244 242 241 230 264 313 320
249 258 261 261 243 214 205 212 199 183 181 180 181 180 175 176 175 169 162 163 169 173 174 180 184 184 180 172 178 182 175 171 184 182 166 157 153 150 164 166 167 171 178 171 164 162 156 166 165 148 154 176 181 193 200 175 169 185 178 191 205 198 190 191 156 193 224 206 185 206 230 154 132 219 215 200 211 232 222 215 238 251 263 301 296 297 307 315
245 250 256 256 231 211 211 209 195 179 176 175 175 178 168 153 171 173 167 166 175 175 168 183 184 180 176 170 171 181 186 346 133 162 155 149 141 171 167 168 173 173 163 152 151 143 110 167 217 195 180 176 164 149 123 120 140 187 195 196 201 198 199 198 186 216 209 145 190 218 215 145 185 206 215 209 195 210 232 237 256 255 272 290 289 296 305 314
230 241 242 246 220 206 207 203 190 178 171 168 166 171 167 150 147 173 178 175 173 172 171 187 182 180 176 169 167 172 166 48 112 147 143 144 109 77 163 167 173 170 153 150 155 146 104 183 207 208 203 19 46 112 126 138 169 191 188 190 195 194 197 202 214 214 156 137 227 219 189 216 221 195 214 235 197 212 267 266 245 244 278 291 291 296 304 310
228 242 236 238 237 200 191 188 180 175 170 168 164 160 163 159 154 168 176 167 168 174 175 183 188 186 174 168 167 163 154 127 143 148 127 135 124 114 153 165 174 168 151 153 168 158 124 192 197 185 158 14 56 137 151 163 178 180 180 189 192 189 195 206 217 209 165 188 236 166 169 219 224 188 208 232 220 258 273 280 284 288 293 294 292 295 300 304
228 247 245 242 243 200 178 170 166 175 174 169 167 163 162 162 162 163 153 147 170 181 175 168 187 188 179 175 168 162 167 161 158 165 157 149 147 142 150 164 185 178 163 157 178 182 168 185 181 156 123 23 39 158 170 170 159 171 190 194 191 194 201 207 215 206 191 217 246 101 179 236 224 182 218 240 250 266 278 284 286 286 284 282 283 288 293 297
226 231 235 240 243 207 180 167 164 176 175 169 170 170 164 160 159 156 151 159 167 177 179 175 177 180 181 182 177 177 185 178 171 175 166 150 152 161 167 172 175 177 177 171 172 202 199 181 158 147 129 27 23 167 169 166 164 178 196 204 205 207 208 213 216 199 203 235 249 260 268 261 208 177 218 236 247 261 267 266 267 267 266 270 277 284 289 293
238 232 226 232 231 187 180 169 167 170 172 175 171 165 165 164 158 146 147 171 170 170 179 177 172 178 183 184 185 188 192 188 180 173 166 162 167 167 166 168 164 166 174 174 167 160 168 169 148 153 164 197 182 152 136 132 142 178 214 218 213 211 210 214 214 199 208 225 217 219 260 254 170 168 202 222 236 243 242 246 254 258 262 267 273 277 284 290
241 232 228 234 222 169 168 167 173 173 173 175 167 164 167 162 154 144 141 176 181 175 180 178 170 171 181 189 196 196 193 193 182 171 169 168 162 144 123 141 159 164 162 158 155 146 144 147 149 166 175 182 170 150 135 110 96 227 234 218 202 202 203 204 217 217 214 210 184 206 238 226 136 161 189 200 222 232 238 245 252 257 262 265 267 270 279 288
Height
1465 1468 1470 1472 1474 1475 1477 1480 1482 1484 1487 1489 1491 1493 1495 1497 1499 1502 1505 1508 1511 1513 1517 1520 1522 1524 1526 1528 1529 1531 1533 1534 1536 1536 1536 1540 1543 1546 1549 1552 1553 1555 1557 1559 1560 1561 1561 1563 1564 1565 1566 1567 1567 1568 1569 1569 1569 1569 1569 1571 1571 1570 1570 1571 1570 1570 1571 1570 1571 1572 1572 1572 1572 1573 1574 1573 1574 1574 1574 1574 1574 1574 1575 1576 1576 1576 1577 1578
1462 1465 1468 1471 1472 1474 1475 1478 1480 1482 1485 1487 1490 1492 1494 1496 1498 1500 1503 1507 1509 1512 1515 1518 1521 1523 1524 1526 1527 1529 1531 1533 1535 1534 1534 1538 1541 1543 1546 1550 1553 1554 1557 1558 1559 1561 1561 1562 1564 1565 1566 1567 1568 1568 1569 1569 1569 1569 1570 1571 1570 1568 1570 1571 1571 1572 1572 1571 1571 1571 1572 1572 1572 1573 1574 1574 1573 1574 1574 1573 1574 1574 1574 1575 1575 1576 1576 1577
1460 1462 1465 1468 1470 1471 1473 1476 1478 1481 1483 1486 1489 1490 1492 1494 1497 1499 1502 1505 1507 1511 1514 1516 1520 1521 1523 1525 1526 1529 1530 1534 1534 1531 1534 1539 1541 1542 1544 1549 1552 1554 1556 1557 1559 1560 1561 1562 1563 1565 1566 1567 1567 1568 1569 1569 1569 1569 1570 1570 1569 1570 1571 1572 1573 1573 1573 1572 1572 1571 1571 1572 1572 1573 1574 1573 1573 1573 1572 1571 1572 1572 1572 1573 1574 1575 1575 1576
1458 1459 1461 1465 1467 1469 1471 1474 1476 1479 1481 1484 1487 1489 1491 1493 1496 1498 1501 1503 1506 1509 1512 1515 1518 1520 1522 1524 1526 1528 1531 1536 1533 1528 1533 1538 1540 1542 1541 1546 1551 1553 1556 1557 1558 1560 1560 1562 1563 1564 1565 1566 1567 1568 1568 1569 1569 1569 1569 1569 1568 1570 1571 1572 1573 1573 1573 1573 1572 1572 1571 1571 1571 1572 1573 1573 1573 1570 1568 1568 1569 1569 1570 1571 1572 1573 1574 1575
1456 1458 1460 1462 1465 1467 1469 1472 1475 1478 1480 1482 1485 1488 1490 1492 1494 1497 1500 1502 1505 1508 1512 1514 1517 1519 1520 1522 1525 1527 1531 1536 1530 1527 1533 1535 1538 1541 1540 1545 1550 1552 1555 1556 1558 1559 1560 1561 1562 1563 1564 1565 1567 1568 1567 1568 1569 1569 1569 1568 1569 1570 1570 1571 1573 1573 1573 1572 1572 1572 1571 1570 1571 1571 1571 1572 1570 1566 1566 1567 1568 1568 1569 1570 1571 1572 1573 1574
1455 1457 1458 1460 1463 1466 1468 1471 1474 1476 1479 1481 1483 1486 1488 1490 1493 1496 1498 1501 1503 1506 1510 1512 1515 1517 1519 1521 1524 1526 1528 1530 1526 1526 1531 1533 1536 1540 1540 1544 1549 1552 1554 1555 1557 1558 1559 1560 1561 1562 1563 1564 1565 1566 1566 1568 1569 1568 1568 1569 1569 1570 1570 1571 1572 1572 1572 1572 1572 1571 1570 1570 1570 1569 1569 1569 1567 1565 1565 1566 1567 1568 1568 1569 1570 1571 1571 1572
1453 1455 1457 1459 1461 1464 1467 1470 1472 1474 1477 1479 1481 1484 1487 1489 1492 1494 1497 1500 1502 1505 1508 1510 1513 1515 1517 1521 1523 1525 1526 1525 1524 1525 1528 1531 1535 1539 1541 1544 1548 1551 1553 1554 1555 1556 1558 1559 1559 1560 1562 1563 1564 1565 1566 1568 1569 1568 1567 1569 1570 1570 1570 1571 1571 1571 1571 1572 1571 1571 1570 1570 1569 1568 1568 1566 1563 1564 1565 1565 1567 1567 1567 1568 1569 1569 1570 1570
1452 1454 1455 1457 1459 1461 1465 1467 1470 1473 1475 1477 1480 1482 1485 1488 1490 1493 1496 1498 1500 1503 1506 1509 1511 1513 1516 1518 1521 1524 1524 1524 1524 1524 1526 1530 1534 1537 1540 1543 1547 1549 1551 1552 1553 1555 1557 1558 1558 1559 1560 1562 1563 1565 1566 1568 1569 1568 1567 1569 1570 1570 1570 1570 1570 1571 1571 1571 1571 1570 1569 1569 1568 1568 1566 1563 1561 1562 1563 1564 1565 1566 1566 1567 1567 1568 1568 1569
1451 1452 1454 1456 1457 1459 1462 1466 1468 1471 1474 1476 1478 1480 1483 1486 1489 1491 1494 1495 1497 1501 1504 1507 1509 1512 1515 1517 1520 1522 1520 1522 1525 1525 1526 1529 1533 1537 1539 1542 1545 1547 1549 1551 1552 1554 1556 1556 1556 1557 1558 1560 1562 1564 1566 1568 1567 1566 1567 1569 1570 1569 1569 1570 1570 1570 1570 1570 1570 1570 1568 1567 1567 1567 1563 1559 1559 1560 1561 1562 1563 1564 1565 1565 1566 1567 1567 1568
1449 1451 1453 1455 1457 1459 1461 1465 1467 1470 1473 1474 1476 1479 1481 1485 1487 1490 1492 1493 1495 1498 1502 1505 1507 1511 1514 1516 1519 1519 1517 1522 1526 1525 1527 1529 1532 1536 1539 1541 1544 1546 1547 1549 1551 1553 1554 1554 1555 1556 1558 1560 1562 1564 1565 1566 1565 1566 1568 1569 1570 1570 1569 1569 1569 1569 1569 1569 1569 1569 1568 1566 1567 1566 1561 1557 1558 1559 1559 1560 1561 1562 1563 1564 1565 1565 1566 1567
1447 1450 1452 1454 1456 1458 1461 1464 1466 1469 1471 1473 1475 1477 1480 1483 1486 1488 1490 1492 1494 1497 1501 1503 1506 1509 1512 1514 1516 1516 1517 1522 1525 1526 1529 1530 1533 1536 1539 1541 1543 1544 1546 1548 1550 1551 1553 1554 1555 1556 1558 1559 1562 1564 1565 1565 1565 1567 1568 1570 1570 1570 1569 1568 1568 1568 1569 1568 1568 1568 1567 1566 1567 1565 1559 1557 1558 1558 1558 1559 1559 1561 1561 1563 1563 1564 1565 1565
1446 1448 1450 1452 1454 1457 1459 1462 1465 1467 1469 1471 1473 1476 1479 1481 1484 1487 1488 1491 1493 1496 1500 1502 1505 1508 1511 1513 1514 1515 1518 1521 1524 1527 1528 1530 1534 1537 1539 1541 1542 1544 1545 1547 1549 1551 1552 1554 1555 1556 1556 1558 1561 1565 1565 1565 1567 1568 1569 1570 1570 1569 1568 1566 1566 1567 1568 1568 1567 1568 1567 1563 1562 1560 1556 1557 1557 1557 1558 1558 1558 1559 1559 1561 1561 1562 1563 1563
1444 1447 1449 1451 1452 1455 1458 1460 1463 1465 1467 1470 1472 1475 1478 1479 1482 1485 1486 1489 1492 1495 1498 1501 1503 1507 1510 1511 1512 1515 1518 1520 1523 1526 1528 1530 1533 1536 1538 1540 1542 1544 1546 1547 1549 1551 1553 1554 1555 1555 1556 1558 1561 1564 1564 1566 1568 1568 1569 1570 1570 1570 1566 1562 1564 1565 1567 1567 1566 1569 1568 1558 1554 1555 1555 1556 1556 1556 1557 1556 1557 1557 1557 1558 1559 1560 1560 1561
1443 1445 1447 1449 1451 1453 1456 1458 1461 1463 1465 1468 1471 1474 1476 1478 1480 1482 1485 1489 1491 1494 1497 1499 1502 1505 1508 1509 1511 1515 1517 1519 1522 1524 1527 1529 1531 1534 1537 1538 1541 1543 1545 1547 1549 1551 1552 1554 1555 1555 1557 1558 1561 1563 1565 1568 1568 1567 1570 1570 1571 1572 1565 1561 1564 1564 1564 1565 1564 1569 1568 1557 1552 1553 1554 1555 1555 1555 1555 1554 1555 1555 1556 1556 1557 1558 1558 1559
1441 1443 1445 1448 1449 1452 1454 1457 1460 1462 1464 1466 1469 1472 1475 1477 1479 1481 1484 1487 1490 1492 1493 1496 1499 1502 1506 1508 1509 1512 1516 1518 1520 1522 1525 1527 1530 1532 1534 1537 1540 1542 1545 1547 1549 1550 1552 1553 1554 1555 1558 1559 1560 1563 1566 1568 1568 1568 1570 1571 1572 1572 1565 1560 1563 1563 1563 1563 1563 1567 1566 1558 1552 1552 1552 1553 1553 1553 1553 1553 1553 1553 1554 1554 1555 1556 1556 1556
1439 1442 1444 1446 1448 1450 1452 1455 1458 1461 1463 1466 1468 1471 1473 1475 1477 1479 1482 1486 1488 1489 1490 1493 1496 1499 1504 1505 1506 1509 1512 1514 1517 1520 1523 1526 1528 1531 1533 1536 1539 1542 1544 1546 1548 1550 1551 1553 1555 1556 1558 1560 1560 1560 1564 1569 1571 1570 1570 1570 1570 1569 1565 1562 1562 1562 1562 1563 1563 1564 1562 1556 1551 1550 1551 1552 1552 1552 1551 1550 1550 1551 1551 1552 1553 1553 1553 1554
1438 1440 1442 1445 1447 1449 1451 1454 1456 1459 1462 1464 1467 1469 1471 1473 1475 1477 1481 1484 1486 1486 1488 1490 1493 1500 1502 1501 1502 1504 1506 1510 1515 1518 1521 1524 1527 1529 1533 1535 1538 1541 1543 1545 1548 1549 1551 1553 1554 1556 1557 1558 1557 1558 1565 1572 1574 1573 1571 1568 1566 1566 1565 1562 1560 1562 1563 1562 1562 1562 1560 1554 1549 1549 1549 1550 1551 1551 1550 1548 1548 1548 1549 1549 1550 1551 1551 1551
1436 1438 1441 1443 1445 1448 1450 1452 1455 1458 1460 1462 1465 1467 1469 1471 1473 1476 1477 1481 1483 1483 1487 1489 1492 1498 1498 1495 1495 1496 1499 1506 1512 1516 1519 1522 1525 1529 1532 1534 1536 1539 1542 1545 1547 1548 1551 1553 1554 1555 1557 1557 1556 1557 1562 1567 1567 1568 1569 1565 1563 1564 1564 1562 1559 1561 1562 1562 1561 1561 1560 1554 1549 1549 1549 1549 1550 1550 1548 1547 1547 1546 1546 1546 1547 1548 1548 1548
1435 1437 1439 1442 1444 1446 1448 1451 1454 1456 1458 1461 1463 1465 1468 1470 1473 1474 1474 1478 1478 1473 1473 1477 1481 1485 1483 1483 1487 1492 1498 1505 1511 1516 1518 1519 1524 1528 1531 1534 1536 1538 1541 1543 1545 1547 1548 1552 1554 1554 1554 1555 1554 1553 1554 1556 1556 1558 1560 1559 1559 1560 1560 1559 1559 1560 1562 1562 1560 1558 1557 1551 1548 1547 1547 1547 1547 1547 1546 1545 1545 1545 1544 1544 1544 1544 1545 1545
1433 1436 1438 1440 1442 1445 1447 1450 1453 1455 1457 1459 1461 1464 1466 1468 1472 1473 1471 1474 1473 1467 1463 1461 1465 1471 1474 1478 1485 1491 1498 1506 1510 1514 1516 1517 1522 1527 1531 1534 1537 1539 1538 1538 1542 1545 1546 1550 1552 1549 1548 1549 1550 1550 1550 1551 1552 1554 1557 1558 1558 1558 1557 1557 1559 1561 1562 1561 1556 1554 1554 1551 1547 1545 1544 1545 1545 1544 1543 1542 1542 1542 1542 1542 1542 1542 1542 1542
1431 1434 1436 1439 1441 1443 1446 1448 1451 1454 1456 1458 1460 1462 1462 1463 1468 1469 1468 1471 1472 1469 1467 1461 1460 1466 1471 1476 1482 1486 1494 1503 1509 1512 1515 1517 1520 1525 1530 1532 1534 1536 1536 1537 1541 1544 1546 1547 1546 1544 1544 1546 1548 1550 1551 1553 1553 1555 1557 1559 1559 1559 1558 1557 1559 1560 1562 1562 1555 1552 1554 1549 1545 1543 1541 1542 1542 1540 1539 1539 1538 1538 1539 1540 1540 1540 1540 1539
1430 1432 1434 1437 1439 1442 1444 1447 1450 1453 1455 1457 1458 1459 1459 1461 1464 1465 1467 1470 1468 1468 1469 1467 1466 1467 1471 1477 1482 1485 1490 1497 1505 1509 1511 1515 1519 1522 1525 1528 1530 1532 1534 1537 1541 1546 1548 1544 1541 1542 1543 1546 1549 1550 1552 1553 1555 1556 1557 1560 1559 1558 1558 1558 1559 1560 1561 1562 1555 1552 1554 1548 1541 1539 1537 1537 1538 1536 1535 1535 1535 1536 1536 1536 1537 1537 1537 1537
1428 1430 1433 1435 1438 1441 1443 1445 1448 1451 1453 1454 1456 1456 1458 1461 1464 1465 1468 1468 1464 1463 1464 1466 1466 1465 1469 1478 1483 1486 1488 1491 1497 1503 1506 1509 1514 1518 1522 1525 1527 1531 1534 1534 1537 1543 1545 1540 1537 1541 1543 1545 1549 1551 1552 1554 1556 1557 1557 1560 1559 1559 1560 1558 1559 1561 1561 1561 1558 1555 1554 1545 1537 1534 1531 1531 1531 1531 1531 1531 1531 1532 1533 1533 1533 1534 1534 1535
1426 1428 1431 1433 1436 1439 1441 1445 1447 1449 1451 1452 1453 1455 1457 1461 1465 1467 1471 1470 1463 1459 1459 1461 1463 1462 1464 1471 1478 1482 1485 1488 1492 1496 1501 1505 1510 1516 1519 1521 1525 1531 1533 1532 1534 1538 1539 1537 1536 1540 1542 1545 1549 1552 1553 1555 1558 1560 1558 1557 1557 1559 1560 1558 1559 1560 1559 1560 1560 1557 1551 1539 1531 1530 1526 1524 1526 1527 1527 1528 1528 1528 1529 1530 1529 1529 1530 1531
1424 1427 1429 1432 1435 1437 1440 1443 1444 1446 1449 1449 1450 1453 1459 1463 1466 1469 1474 1475 1466 1459 1459 1458 1460 1462 1463 1468 1475 1479 1482 1488 1491 1493 1498 1502 1506 1511 1516 1520 1523 1528 1531 1531 1534 1536 1537 1537 1537 1541 1543 1545 1549 1551 1552 1554 1558 1561 1559 1556 1556 1557 1558 1560 1561 1560 1559 1560 1558 1559 1555 1537 1526 1528 1526 1523 1524 1524 1524 1525 1525 1525 1525 1526 1525 1525 1527 1527
1422 1425 1427 1430 1433 1436 1439 1440 1441 1445 1446 1446 1448 1453 1459 1462 1467 1470 1475 1479 1468 1456 1456 1456 1456 1459 1462 1468 1474 1480 1485 1487 1491 1493 1496 1502 1504 1507 1513 1518 1521 1524 1527 1530 1534 1535 1536 1537 1537 1540 1543 1545 1549 1550 1550 1551 1557 1560 1556 1554 1556 1556 1559 1561 1562 1562 1562 1560 1558 1561 1561 1547 1533 1529 1524 1522 1522 1521 1521 1521 1521 1522 1521 1521 1522 1522 1523 1524
1420 1423 1426 1429 1432 1434 1436 1436 1439 1442 1442 1443 1446 1453 1458 1462 1468 1471 1478 1481 1463 1447 1450 1453 1453 1453 1457 1464 1466 1473 1481 1483 1490 1496 1495 1501 1506 1508 1512 1515 1519 1522 1523 1529 1535 1534 1534 1538 1539 1540 1543 1546 1548 1547 1547 1549 1553 1556 1553 1554 1557 1558 1561 1562 1561 1563 1563 1561 1559 1558 1562 1558 1542 1528 1521 1521 1521 1517 1516 1515 1515 1517 1517 1515 1517 1518 1519 1520
1418 1421 1424 1427 1430 1431 1433 1435 1438 1438 1438 1440 1446 1452 1456 1461 1467 1471 1479 1474 1449 1437 1444 1449 1452 1452 1455 1462 1461 1463 1468 1472 1484 1493 1494 1499 1505 1507 1510 1511 1514 1517 1520 1525 1532 1532 1532 1536 1538 1539 1543 1545 1543 1541 1544 1548 1551 1554 1554 1555 1556 1558 1560 1560 1562 1564 1565 1567 1563 1555 1560 1561 1539 1522 1520 1521 1520 1514 1510 1511 1511 1512 1513 1512 1512 1513 1514 1516
1416 1419 1422 1424 1428 1429 1431 1434 1434 1434 1437 1441 1447 1451 1455 1461 1467 1472 1476 1463 1439 1435 1440 1443 1450 1452 1453 1459 1462 1461 1464 1470 1478 1488 1495 1499 1502 1505 1507 1510 1512 1516 1522 1524 1528 1533 1534 1534 1535 1536 1540 1540 1539 1540 1543 1547 1550 1553 1555 1555 1557 1561 1562 1564 1566 1566 1569 1572 1564 1555 1559 1559 1536 1516 1518 1522 1519 1513 1509 1509 1509 1508 1509 1509 1509 1510 1512 1513
1413 1416 1419 1422 1425 1426 1429 1430 1427 1429 1437 1442 1447 1450 1455 1460 1464 1470 1469 1451 1438 1440 1441 1439 1443 1447 1449 1455 1460 1461 1464 1472 1477 1486 1496 1498 1501 1506 1506 1510 1514 1518 1525 1527 1530 1535 1534 1534 1535 1536 1537 1536 1539 1544 1545 1547 1549 1552 1556 1557 1561 1565 1565 1568 1567 1567 1574 1571 1559 1552 1552 1558 1546 1518 1509 1514 1514 1512 1509 1507 1507 1506 1507 1506 1507 1508 1509 1510
1410 1413 1416 1419 1420 1423 1426 1423 1420 1428 1437 1441 1445 1449 1453 1458 1460 1463 1457 1443 1441 1442 1440 1440 1440 1442 1446 1449 1455 1458 1464 1472 1476 1483 1493 1497 1502 1505 1504 1511 1517 1522 1530 1531 1533 1537 1535 1536 1537 1536 1537 1537 1539 1546 1548 1549 1549 1552 1555 1557 1564 1570 1569 1572 1571 1573 1578 1566 1556 1554 1553 1558 1550 1521 1507 1509 1509 1510 1509 1507 1506 1505 1505 1505 1505 1506 1507 1508
1407 1410 1413 1414 1417 1420 1418 1414 1419 1429 1436 1439 1443 1445 1448 1453 1453 1450 1444 1441 1441 1437 1435 1439 1438 1438 1444 1446 1449 1454 1460 1469 1474 1478 1485 1493 1499 1499 1496 1500 1505 1515 1526 1528 1532 1537 1536 1536 1537 1537 1537 1536 1538 1545 1553 1554 1552 1552 1554 1556 1566 1576 1577 1577 1575 1574 1571 1562 1559 1560 1559 1556 1537 1514 1509 1508 1504 1506 1507 1506 1506 1505 1504 1504 1504 1505 1505 1506
1404 1407 1410 1410 1413 1413 1409 1412 1423 1430 1432 1436 1440 1441 1443 1445 1439 1435 1439 1440 1434 1428 1430 1436 1435 1436 1441 1444 1448 1451 1457 1465 1470 1475 1480 1487 1494 1495 1494 1493 1492 1496 1506 1517 1527 1534 1538 1540 1537 1537 1538 1535 1534 1540 1550 1554 1552 1551 1552 1553 1559 1569 1576 1573 1570 1570 1565 1560 1560 1560 1560 1551 1526 1509 1508 1505 1502 1504 1504 1505 1505 1504 1504 1504 1503 1504 1503 1503
1400 1404 1405 1406 1408 1405 1404 1413 1422 1425 1428 1432 1435 1436 1436 1434 1429 1428 1434 1436 1431 1428 1429 1431 1435 1437 1437 1439 1443 1445 1453 1465 1468 1472 1480 1488 1493 1494 1494 1495 1492 1490 1497 1512 1521 1522 1529 1534 1530 1530 1531 1531 1531 1533 1538 1544 1549 1549 1547 1548 1550 1553 1559 1559 1558 1561 1560 1559 1561 1563 1557 1538 1518 1510 1507 1504 1504 1504 1503 1503 1503 1503 1503 1502 1502 1502 1501 1501
1397 1400 1400 1402 1401 1398 1402 1411 1417 1421 1424 1426 1429 1428 1422 1420 1421 1421 1424 1431 1434 1433 1431 1430 1432 1439 1439 1438 1440 1438 1443 1458 1465 1470 1478 1484 1486 1486 1485 1487 1488 1487 1492 1506 1514 1513 1517 1521 1522 1524 1526 1527 1531 1533 1532 1539 1549 1550 1546 1550 1550 1544 1544 1552 1557 1556 1556 1557 1556 1556 1545 1522 1510 1507 1501 1502 1502 1500 1501 1501 1501 1502 1501 1501 1501 1500 1500 1499
1393 1395 1397 1397 1393 1392 1399 1406 1411 1417 1420 1421 1421 1415 1409 1410 1412 1414 1416 1422 1430 1432 1434 1432 1428 1434 1440 1440 1442 1440 1440 1450 1459 1468 1477 1479 1478 1477 1475 1477 1479 1479 1481 1490 1502 1507 1510 1520 1526 1527 1528 1529 1530 1532 1532 1536 1544 1548 1548 1549 1546 1541 1542 1551 1559 1559 1560 1556 1545 1542 1535 1519 1513 1506 1496 1499 1501 1497 1497 1497 1499 1502 1500 1500 1500 1499 1499 1498
1388 1390 1391 1389 1385 1387 1395 1402 1407 1412 1417 1418 1411 1403 1405 1406 1404 1408 1410 1412 1421 1427 1430 1429 1421 1423 1434 1439 1442 1442 1443 1450 1456 1462 1472 1477 1475 1473 1474 1474 1474 1475 1474 1479 1492 1498 1503 1521 1531 1527 1529 1531 1529 1532 1534 1534 1536 1541 1545 1542 1540 1546 1545 1545 1553 1558 1562 1556 1541 1536 1533 1523 1519 1510 1497 1498 1499 1494 1493 1494 1497 1500 1499 1499 1499 1498 1498 1497
1383 1386 1383 1376 1376 1384 1392 1398 1402 1408 1413 1412 1405 1399 1400 1399 1399 1404 1406 1406 1413 1421 1426 1427 1418 1415 1423 1430 1439 1444 1443 1448 1456 1459 1465 1471 1469 1466 1469 1471 1472 1476 1476 1479 1489 1492 1496 1519 1535 1530 1530 1532 1531 1533 1536 1536 1535 1535 1536 1534 1536 1546 1547 1545 1551 1553 1555 1555 1542 1534 1533 1525 1517 1507 1498 1496 1495 1492 1492 1493 1496 1498 1498 1499 1498 1498 1498 1496
1380 1382 1372 1360 1368 1380 1386 1392 1398 1404 1405 1400 1396 1393 1391 1393 1395 1399 1402 1403 1407 1414 1421 1424 1420 1417 1417 1418 1429 1441 1440 1442 1452 1457 1459 1462 1461 1459 1460 1463 1468 1475 1477 1478 1484 1487 1490 1508 1529 1532 1530 1532 1533 1532 1532 1533 1536 1536 1535 1535 1535 1538 1538 1539 1543 1541 1542 1546 1540 1534 1531 1517 1503 1499 1496 1494 1492 1491 1492 1492 1494 1497 1497 1497 1497 1497 1497 1496
1376 1377 1359 1350 1363 1374 1379 1389 1393 1393 1392 1389 1388 1388 1386 1388 1390 1393 1397 1398 1400 1405 1411 1416 1420 1419 1415 1413 1419 1428 1432 1439 1446 1447 1447 1450 1453 1455 1456 1457 1463 1470 1476 1479 1481 1486 1488 1497 1517 1533 1533 1531 1529 1525 1522 1523 1529 1534 1534 1535 1535 1536 1537 1537 1536 1534 1535 1538 1537 1537 1527 1503 1491 1493 1492 1489 1490 1490 1490 1491 1493 1495 1496 1495 1496 1495 1495 1495
1375 1371 1348 1344 1360 1369 1376 1383 1380 1379 1381 1380 1380 1380 1379 1379 1383 1388 1392 1394 1396 1400 1403 1407 1414 1416 1414 1415 1417 1418 1424 1435 1442 1440 1439 1442 1445 1449 1449 1451 1457 1464 1473 1478 1478 1482 1486 1490 1508 1527 1530 1525 1521 1519 1519 1521 1523 1526 1527 1528 1527 1530 1535 1536 1537 1537 1537 1536 1535 1539 1529 1499 1485 1490 1489 1487 1489 1489 1490 1492 1492 1494 1494 1493 1494 1494 1494 1493
1370 1358 1335 1342 1358 1363 1370 1372 1367 1368 1370 1368 1370 1373 1373 1373 1376 1382 1386 1390 1394 1398 1401 1403 1407 1411 1411 1411 1413 1414 1418 1428 1435 1434 1432 1433 1433 1433 1436 1443 1453 1459 1465 1471 1474 1478 1483 1489 1505 1520 1522 1520 1522 1523 1524 1524 1524 1526 1527 1525 1522 1525 1527 1527 1531 1533 1538 1540 1537 1542 1536 1502 1481 1486 1488 1486 1488 1489 1491 1491 1491 1491 1491 1491 1492 1492 1492 1492
1358 1339 1324 1341 1357 1358 1361 1359 1355 1357 1357 1359 1365 1367 1365 1364 1368 1374 1379 1385 1390 1395 1400 1402 1403 1407 1408 1407 1410 1412 1415 1422 1426 1424 1424 1428 1429 1428 1432 1439 1449 1457 1462 1467 1472 1477 1481 1488 1504 1518 1521 1519 1521 1524 1526 1528 1529 1527 1526 1525 1524 1523 1521 1522 1523 1524 1531 1536 1534 1540 1535 1501 1480 1486 1489 1487 1489 1490 1490 1489 1488 1489 1488 1489 1490 1490 1490 1491
1347 1332 1323 1336 1349 1351 1349 1344 1343 1348 1350 1354 1357 1356 1356 1356 1359 1365 1371 1377 1385 1391 1397 1399 1400 1403 1403 1406 1408 1407 1410 1418 1424 1424 1424 1427 1430 1432 1435 1439 1444 1451 1455 1456 1460 1467 1474 1482 1494 1512 1525 1527 1527 1527 1525 1526 1528 1522 1520 1524 1523 1520 1523 1526 1525 1524 1525 1520 1519 1526 1519 1493 1483 1487 1487 1488 1489 1487 1487 1487 1486 1486 1487 1487 1488 1488 1489 1489
1343 1333 1320 1323 1334 1340 1335 1330 1333 1338 1340 1344 1346 1347 1350 1352 1353 1356 1364 1373 1380 1386 1391 1394 1396 1398 1401 1405 1407 1405 1404 1407 1415 1424 1426 1428 1434 1436 1436 1440 1444 1446 1449 1452 1455 1460 1469 1475 1478 1488 1502 1509 1509 1507 1499 1502 1515 1519 1518 1520 1519 1517 1521 1521 1523 1526 1520 1510 1510 1511 1500 1487 1486 1486 1484 1487 1487 1486 1486 1486 1486 1486 1486 1486 1486 1486 1487 1486
1339 1329 1315 1312 1321 1326 1322 1319 1322 1324 1326 1332 1338 1339 1341 1347 1352 1355 1360 1368 1375 1381 1387 1390 1392 1395 1398 1401 1405 1408 1409 1408 1411 1418 1423 1428 1435 1437 1436 1440 1444 1447 1450 1453 1457 1462 1470 1474 1472 1469 1469 1471 1474 1477 1476 1485 1504 1512 1511 1513 1514 1514 1515 1516 1520 1518 1508 1508 1509 1497 1487 1488 1487 1483 1482 1483 1484 1485 1484 1483 1485 1485 1484 1485 1485 1484 1484 1484
1333 1322 1312 1309 1309 1308 1308 1310 1309 1309 1312 1317 1324 1330 1334 1340 1348 1354 1358 1363 1369 1377 1384 1386 1388 1391 1393 1396 1400 1406 1412 1415 1414 1417 1423 1429 1434 1438 1439 1441 1445 1449 1451 1453 1456 1460 1468 1474 1471 1467 1468 1469 1469 1473 1477 1483 1492 1496 1500 1507 1509 1510 1513 1514 1511 1500 1497 1508 1502 1482 1482 1490 1483 1478 1480 1480 1481 1483 1482 1481 1482 1483 1483 1483 1482 1481 1481 1481
1323 1312 1304 1305 1300 1290 1290 1297 1298 1300 1305 1307 1313 1321 1328 1334 1339 1346 1354 1361 1366 1371 1378 1384 1386 1386 1386 1388 1392 1403 1413 1417 1419 1423 1426 1430 1433 1438 1443 1447 1448 1449 1450 1454 1456 1457 1463 1469 1468 1468 1476 1479 1476 1477 1478 1478 1482 1487 1493 1498 1501 1505 1508 1505 1497 1489 1491 1496 1483 1472 1481 1483 1476 1477 1479 1477 1479 1479 1477 1478 1479 1480 1481 1480 1479 1479 1479 1479
1315 1306 1300 1301 1296 1281 1277 1286 1293 1297 1299 1302 1308 1314 1319 1326 1333 1339 1347 1356 1363 1366 1370 1379 1385 1385 1386 1383 1384 1393 1401 1405 1414 1421 1422 1425 1429 1432 1439 1445 1446 1447 1449 1452 1456 1457 1459 1464 1468 1471 1478 1483 1482 1480 1477 1478 1483 1487 1489 1491 1493 1495 1493 1487 1483 1482 1485 1483 1475 1476 1484 1478 1473 1476 1476 1475 1477 1476 1475 1477 1477 1478 1479 1477 1477 1477 1477 1477
1304 1299 1294 1294 1291 1278 1271 1275 1284 1292 1296 1298 1305 1311 1314 1320 1327 1335 1341 1346 1354 1361 1366 1373 1380 1382 1384 1383 1382 1385 1385 1384 1391 1398 1403 1412 1419 1422 1426 1428 1431 1439 1444 1446 1452 1456 1457 1463 1470 1470 1476 1486 1487 1483 1480 1481 1483 1486 1489 1490 1488 1485 1483 1479 1479 1484 1487 1482 1477 1482 1485 1474 1469 1473 1475 1475 1475 1475 1476 1477 1476 1476 1476 1475 1475 1474 1474 1474
1292 1290 1289 1287 1281 1274 1271 1270 1273 1281 1288 1292 1297 1304 1311 1316 1320 1329 1340 1343 1346 1353 1360 1368 1375 1379 1381 1382 1381 1381 1379 1377 1378 1382 1386 1390 1394 1400 1407 1412 1418 1428 1436 1441 1447 1450 1455 1465 1469 1467 1474 1485 1487 1486 1486 1484 1486 1492 1491 1483 1477 1475 1477 1477 1477 1480 1480 1475 1479 1487 1480 1465 1462 1468 1472 1474 1474 1474 1474 1474 1474 1473 1472 1472 1472 1471 1470 1470
1284 1284 1284 1281 1273 1267 1268 1271 1273 1274 1277 1280 1287 1295 1304 1312 1316 1323 1337 1346 1347 1348 1354 1360 1368 1376 1381 1381 1377 1373 1375 1379 1381 1385 1389 1389 1391 1396 1401 1408 1414 1420 1428 1437 1443 1448 1453 1460 1464 1464 1469 1480 1486 1487 1486 1488 1497 1495 1473 1457 1460 1467 1472 1476 1475 1472 1469 1470 1476 1476 1463 1454 1459 1465 1468 1471 1472 1471 1470 1470 1470 1469 1467 1468 1469 1468 1467 1466